sat.trackr.live / text

‹ back to catalog

STARLINK-6176

NORAD 56388 · 2023-061Q

PAYLOAD ACTIVE UNKNOWN

§ Identity

Operator
Country
US
Launch date
2023-05-04
Launch site
AFETR
Launch vehicle
Mass (kg)
RCS (m²)

Purposes: comms

External: N2YO · Heavens-Above · Gunter

§ Orbital elements

Epoch: 2026-05-24T23:39:34.180128Z

Period
94.27 min
Inclination
43.0015°
Eccentricity
0.0000241
Mean motion
15.27575067 rev/d
Perigee alt
482.9 km
Apogee alt
483.2 km
Semi-major
6,861.2 km
B*
8.8392e-6
RAAN
127.3856°
Arg perigee
260.4275°
Mean anomaly
99.6549°
Rev number
16,841

§ Raw data

STARLINK-61761 56388U 23061Q   26144.98581227 -.00000018  00000+0  88392-5 0  99952 56388  43.0015 127.3856 0000241 260.4275  99.6549 15.27575067168417

JSON: /api/v1/satellites/56388 · /tle

For live sub-satellite position, see the globe view (requires WebGL).

§ Visibility from observer

Set your observer location to see the next 7 days of passes ≥ 10°. The values pass through the URL so the page stays shareable.

No JS? Fill the form by hand. The geolocation button needs JavaScript.